Flag for U.S.A. Weather past 2 weeks in Duluth, Minnesota, U.S.A.

Now
1 °F

Clear.


Feels Like: 1 °F
Forecast: -6 / 16 °F
Wind: No wind

Location: Sky Harbor Airport

Current Time: Feb 27, 2015 at 12:34:09 AM

Latest Report: Feb 27, 2015 at 12:13 AM


Visibility: 10 mi

Pressure: 30.46 "Hg

Humidity: 55%

Dew point: -11 °F

Location of DuluthLocation

Historic Weather in Duluth — Graph

°F

Duluth temperature yesterday

Maximum temperature yesterday: 10 °F (at 2:13 PM)
Minimum temperature yesterday: -9 °F (at 7:33 AM)
Average temperature yesterday: 3 °F

Past Weeks' High & Low Weather Summary

 TemperatureHumidityPressure
High28 °F (Feb 24, 5:13 AM)86% (Feb 20, 10:13 PM)30.73 "Hg (Feb 20, 10:13 PM)
Low-17 °F (Feb 19, 7:33 AM)34% (Feb 24, 5:13 PM)29.52 "Hg (Feb 24, 6:33 AM)
Average4 °F59%30.21 "Hg
* Reported Feb 11 11:13 PM — Feb 26 11:34 PM, Duluth, Weather by CustomWeather, © 2015

Note: Actual official high and low records may vary slightly from our data, if they occured in-between our weather recording intervals... More about our weather records

Advertising

Duluth weather history for previous 24 hours

 ConditionsComfort  
Time TempWeatherWind HumidityBarometerVisibility
11:34 PM
Thu, Feb 26
1 °FClear.No wind55%30.45 "Hg10 mi
11:13 PM1 °FClear.No wind55%30.45 "Hg10 mi
10:54 PM3 °FClear.No wind50%30.45 "Hg10 mi
10:33 PM5 °FClear.No wind46%30.46 "Hg10 mi
10:14 PM5 °FClear.No wind46%30.46 "Hg10 mi
9:33 PM5 °FClear.No wind46%30.45 "Hg10 mi
9:14 PM5 °FClear.No wind46%30.45 "Hg10 mi
8:53 PM5 °FClear.9 mph51%30.44 "Hg10 mi
8:33 PM7 °FClear.12 mph47%30.44 "Hg10 mi
8:14 PM7 °FClear.12 mph47%30.43 "Hg10 mi
7:53 PM7 °FClear.10 mph51%30.43 "Hg10 mi
7:33 PM7 °FClear.6 mph47%30.43 "Hg10 mi
7:14 PM9 °FClear.10 mph43%30.43 "Hg10 mi
6:53 PM9 °FClear.10 mph47%30.43 "Hg10 mi
6:33 PM9 °FClear.9 mph47%30.42 "Hg10 mi
6:14 PM9 °FClear.10 mph47%30.42 "Hg10 mi
5:53 PM9 °FClear.13 mph47%30.42 "Hg10 mi
5:33 PM10 °FSunny.13 mph44%30.41 "Hg10 mi
5:13 PM10 °FSunny.13 mph44%30.41 "Hg10 mi
4:54 PM10 °FSunny.13 mph44%30.41 "Hg10 mi
4:33 PM10 °FSunny.10 mph44%30.41 "Hg10 mi
4:13 PM10 °FSunny.8 mph44%30.41 "Hg10 mi
3:54 PM10 °FSunny.No wind44%30.41 "Hg10 mi
3:13 PM10 °FSunny.No wind40%30.41 "Hg10 mi
2:54 PM10 °FSunny.7 mph44%30.41 "Hg10 mi
2:33 PM10 °FSunny.No wind40%30.42 "Hg10 mi
2:13 PM10 °FSunny.No wind40%30.42 "Hg10 mi
1:54 PM9 °FSunny.No wind43%30.43 "Hg10 mi
1:33 PM9 °FSunny.No wind43%30.43 "Hg10 mi
1:13 PM7 °FSunny.No wind43%30.43 "Hg10 mi
12:53 PM9 °FSunny.No wind47%30.44 "Hg10 mi
12:34 PM7 °FSunny.6 mph47%30.45 "Hg10 mi
12:13 PM7 °FSunny.No wind47%30.45 "Hg10 mi
11:53 AM7 °FSunny.9 mph47%30.46 "Hg10 mi
11:34 AM5 °FSunny.12 mph51%30.46 "Hg10 mi
11:13 AM3 °FSunny.No wind55%30.46 "Hg10 mi
10:54 AM3 °FSunny.No wind55%30.47 "Hg10 mi
10:33 AM1 °FSunny.No wind60%30.47 "Hg10 mi
10:13 AM1 °FSunny.No wind55%30.47 "Hg10 mi
9:54 AM0 °FSunny.No wind60%30.46 "Hg10 mi
9:33 AM0 °FSunny.No wind60%30.46 "Hg10 mi
9:13 AM-2 °FSunny.No wind65%30.45 "Hg10 mi
8:54 AM-2 °FSunny.No wind59%30.45 "Hg10 mi
8:33 AM-6 °FSunny.No wind64%30.46 "Hg10 mi
8:13 AM-8 °FSunny.No wind64%30.45 "Hg10 mi
7:54 AM-6 °FSunny.No wind64%30.44 "Hg10 mi
7:33 AM-9 °FSunny.No wind70%30.43 "Hg10 mi
7:13 AM-6 °FSunny.No wind64%30.42 "Hg10 mi
6:53 AM-6 °FSunny.No wind64%30.41 "Hg10 mi
6:34 AM-4 °FClear.No wind59%30.40 "Hg10 mi
6:13 AM-4 °FClear.No wind65%30.40 "Hg10 mi
5:53 AM-2 °FClear.No wind65%30.39 "Hg10 mi
5:34 AM-2 °FClear.No wind65%30.38 "Hg10 mi
5:13 AM-2 °FClear.No wind65%30.38 "Hg10 mi
4:53 AM-2 °FClear.No wind65%30.37 "Hg10 mi
4:34 AM-2 °FClear.No wind65%30.37 "Hg10 mi
4:13 AM-2 °FClear.8 mph65%30.37 "Hg10 mi
3:53 AM-2 °FClear.9 mph65%30.37 "Hg10 mi
3:34 AM-2 °FClear.No wind65%30.36 "Hg10 mi
3:13 AM-2 °FClear.No wind65%30.36 "Hg10 mi
2:53 AM0 °FClear.No wind60%30.36 "Hg10 mi
2:33 AM0 °FClear.No wind65%30.35 "Hg10 mi
2:14 AM0 °FClear.No wind60%30.35 "Hg10 mi
1:53 AM0 °FClear.No wind65%30.35 "Hg10 mi
1:33 AM0 °FClear.No wind60%30.34 "Hg10 mi
1:14 AM0 °FClear.No wind65%30.34 "Hg10 mi
12:53 AM1 °FClear.No wind60%30.33 "Hg10 mi
Weather by CustomWeather, © 2015

See weather overviewHow to use our weather pages